Regional Weather Roundup
Issued by NWS

Home | Current Version | Previous Version | Graphics & Text | Print | Product List | Glossary On
Versions: 1 2 3 4 5 6 7 8 9 10 11 12 13 14 15 16 17 18 19 20 21 22 23 24 25 26 27 28 29 30 31 32 33 34 35 36 37 38 39 40 41 42 43 44 45 46 47 48 49 50
668
ASUS43 KLMK 261410
RWRKY
KENTUCKY REGIONAL WEATHER ROUNDUP
NATIONAL WEATHER SERVICE LOUISVILLE KY
1000 AM EDT TUE SEP 26 2017

NOTE "FAIR" INDICATES FEW OR NO CLOUDS BELOW 12,000 FEET
WITH NO SIGNIFICANT WEATHER AND/OR OBSTRUCTIONS TO VISIBILITY.

KYZ001>023-026-027-061>063-070>075-261500-
WESTERN AND SOUTH CENTRAL KENTUCKY

CITY           SKY/WX    TMP DP  RH WIND       PRES   REMARKS
PADUCAH        MOSUNNY   77  67  71 CALM      30.01R
HENDERSON      SUNNY     78  70  76 CALM      30.02S
OWENSBORO      SUNNY     78  67  68 S6        30.03R
HOPKINSVILLE   SUNNY     74  67  79 CALM      30.02R
BOWLING GREEN  SUNNY     72  68  87 SE3       30.03R
GLASGOW        SUNNY     75  66  74 CALM      30.04R
$$

KYZ024-025-028>034-038-045-046-053-261500-
NORTH CENTRAL KENTUCKY

CITY           SKY/WX    TMP DP  RH WIND       PRES   REMARKS
LOUISVILLE/SDF SUNNY     75  66  73 CALM      30.03R
LOUISVILLE/LOU SUNNY     76  69  79 SE3       30.04R
FORT KNOX      SUNNY     75  67  76 E3        30.02S
$$

KYZ035>037-039>044-047>052-055>060-089>105-261500-
NORTHEAST KENTUCKY

CITY           SKY/WX    TMP DP  RH WIND       PRES   REMARKS
LEXINGTON      SUNNY     77  65  66 E3        30.06R
COVINGTON      SUNNY     78  67  68 CALM      30.05R
FRANKFORT      SUNNY     74  64  71 CALM      30.04R
$$

KYZ054-064>069-076>088-106>120-261500-
SOUTHEAST KENTUCKY

CITY           SKY/WX    TMP DP  RH WIND       PRES   REMARKS
JACKSON        SUNNY     71  64  78 CALM      30.07R
LONDON         SUNNY     70  64  81 CALM      30.06S
SOMERSET       SUNNY     64  64 100 CALM      30.08R
MIDDLESBORO    CLOUDY    61  61 100 CALM      30.09S FOG
MONTICELLO     SUNNY     71  66  84 VRB7      30.07S
$$





USA.gov is the U.S. government's official web portal to all federal, state and local government web resources and services.